| time (UTC) | temp C | wind direction | speed KPH | gust KPH | rain 1hr cm | rain 24hr cm | rain mn cm | humidity % | barometer mb |
| 20260506144219 | 20 | 196 | 14.5 | 20.9 | 0.00 | 0.00 | 0.00 | 74 | 1015.6 |
| 20260506143716 | 20 | 204 | 11.3 | 22.5 | 0.00 | 0.00 | 0.00 | 75 | 1015.6 |
| 20260506143214 | 20 | 201 | 16.1 | 27.4 | 0.00 | 0.00 | 0.00 | 75 | 1015.6 |
| 20260506142712 | 20 | 150 | 8.0 | 14.5 | 0.00 | 0.00 | 0.00 | 75 | 1015.6 |
| 20260506142210 | 19 | 220 | 17.7 | 22.5 | 0.00 | 0.00 | 0.00 | 76 | 1015.6 |
| 20260506141707 | 19 | 216 | 9.7 | 12.9 | 0.00 | 0.00 | 0.00 | 76 | 1015.6 |
| 20260506141205 | 19 | 147 | 11.3 | 22.5 | 0.00 | 0.00 | 0.00 | 76 | 1015.9 |
| 20260506140703 | 19 | 186 | 11.3 | 16.1 | 0.00 | 0.00 | 0.00 | 77 | 1015.9 |
| 20260506140200 | 19 | 217 | 8.0 | 22.5 | 0.00 | 0.00 | 0.00 | 77 | 1015.6 |
| 20260506135656 | 18 | 137 | 11.3 | 20.9 | 0.00 | 0.00 | 0.00 | 77 | 1015.6 |
| 20260506135153 | 18 | 224 | 14.5 | 22.5 | 0.00 | 0.00 | 0.00 | 77 | 1015.9 |
| 20260506134649 | 18 | 213 | 12.9 | 16.1 | 0.00 | 0.00 | 0.00 | 79 | 1015.9 |
| 20260506134145 | 18 | 193 | 8.0 | 12.9 | 0.00 | 0.00 | 0.00 | 79 | 1015.9 |
| 20260506133643 | 18 | 150 | 9.7 | 16.1 | 0.00 | 0.00 | 0.00 | 79 | 1015.9 |
| 20260506133140 | 18 | 213 | 9.7 | 14.5 | 0.00 | 0.00 | 0.00 | 80 | 1015.9 |
| 20260506132637 | 18 | 225 | 11.3 | 22.5 | 0.00 | 0.00 | 0.00 | 80 | 1015.9 |
| 20260506132133 | 18 | 211 | 9.7 | 17.7 | 0.00 | 0.00 | 0.00 | 80 | 1015.6 |
| 20260506131631 | 18 | 190 | 8.0 | 16.1 | 0.00 | 0.00 | 0.00 | 81 | 1015.6 |
| 20260506131127 | 18 | 213 | 14.5 | 16.1 | 0.00 | 0.00 | 0.00 | 80 | 1015.6 |
| 20260506130624 | 18 | 206 | 8.0 | 16.1 | 0.00 | 0.00 | 0.00 | 80 | 1015.6 |
| 20260506130122 | 18 | 185 | 11.3 | 22.5 | 0.00 | 0.00 | 0.00 | 80 | 1015.9 |
| 20260506125620 | 18 | 204 | 16.1 | 17.7 | 0.00 | 0.00 | 0.00 | 81 | 1015.6 |
| 20260506125117 | 18 | 212 | 12.9 | 16.1 | 0.00 | 0.00 | 0.00 | 81 | 1015.6 |
| 20260506124615 | 18 | 188 | 4.8 | 14.5 | 0.00 | 0.00 | 0.00 | 82 | 1015.6 |
| 20260506124113 | 17 | 211 | 4.8 | 16.1 | 0.00 | 0.00 | 0.00 | 82 | 1015.6 |
| 20260506123610 | 17 | 224 | 4.8 | 11.3 | 0.00 | 0.00 | 0.00 | 82 | 1015.6 |
| 20260506123109 | 17 | 227 | 12.9 | 20.9 | 0.00 | 0.00 | 0.00 | 82 | 1015.6 |
| 20260506122605 | 17 | 189 | 0.0 | 20.9 | 0.00 | 0.00 | 0.00 | 83 | 1015.2 |
| 20260506122103 | 17 | 217 | 4.8 | 11.3 | 0.00 | 0.00 | 0.00 | 83 | 1015.2 |
| 20260506121600 | 17 | 202 | 3.2 | 14.5 | 0.00 | 0.00 | 0.00 | 83 | 1015.2 |
| 20260506121056 | 17 | 209 | 0.0 | 12.9 | 0.00 | 0.00 | 0.00 | 84 | 1015.2 |
| 20260506120554 | 17 | 188 | 0.0 | 14.5 | 0.00 | 0.00 | 0.00 | 84 | 1015.2 |
| 20260506120051 | 17 | 209 | 0.0 | 4.8 | 0.00 | 0.00 | 0.00 | 84 | 1015.6 |
| 20260506115549 | 17 | 172 | 4.8 | 12.9 | 0.00 | 0.00 | 0.00 | 84 | 1015.6 |
| 20260506115048 | 17 | 213 | 4.8 | 12.9 | 0.00 | 0.00 | 0.00 | 84 | 1015.2 |
| 20260506114545 | 17 | 198 | 0.0 | 8.0 | 0.00 | 0.00 | 0.00 | 85 | 1015.6 |
| 20260506114043 | 17 | 216 | 4.8 | 9.7 | 0.00 | 0.00 | 0.00 | 85 | 1015.6 |
| 20260506113541 | 17 | 197 | 0.0 | 17.7 | 0.00 | 0.00 | 0.00 | 85 | 1015.2 |
| 20260506113038 | 17 | 121 | 3.2 | 8.0 | 0.00 | 0.00 | 0.00 | 86 | 1015.6 |
| 20260506112534 | 17 | 200 | 4.8 | 11.3 | 0.00 | 0.00 | 0.00 | 87 | 1015.6 |
| 20260506112031 | 16 | 191 | 3.2 | 4.8 | 0.00 | 0.00 | 0.00 | 87 | 1015.6 |
| 20260506111529 | 16 | 215 | 0.0 | 0.0 | 0.00 | 0.00 | 0.00 | 88 | 1015.2 |
| 20260506111026 | 16 | 185 | 0.0 | 9.7 | 0.00 | 0.00 | 0.00 | 88 | 1015.2 |
| 20260506110524 | 16 | 209 | 0.0 | 11.3 | 0.00 | 0.00 | 0.00 | 89 | 1015.2 |
| 20260506110021 | 16 | 221 | 0.0 | 3.2 | 0.00 | 0.00 | 0.00 | 89 | 1015.2 |
| 20260506105517 | 16 | 196 | 0.0 | 3.2 | 0.00 | 0.00 | 0.00 | 89 | 1015.2 |
| 20260506105015 | 16 | 218 | 0.0 | 3.2 | 0.00 | 0.00 | 0.00 | 88 | 1015.6 |
| 20260506104512 | 16 | 200 | 0.0 | 0.0 | 0.00 | 0.00 | 0.00 | 89 | 1015.6 |
| 20260506104010 | 16 | 198 | 0.0 | 3.2 | 0.00 | 0.00 | 0.00 | 88 | 1015.2 |
| 20260506103507 | 16 | 215 | 0.0 | 4.8 | 0.00 | 0.00 | 0.00 | 88 | 1015.2 |
| 20260506103004 | 16 | 177 | 0.0 | 1.6 | 0.00 | 0.00 | 0.00 | 88 | 1015.6 |
| 20260506102502 | 16 | 204 | 1.6 | 4.8 | 0.00 | 0.00 | 0.00 | 88 | 1015.6 |
| 20260506101959 | 16 | 207 | 0.0 | 11.3 | 0.00 | 0.00 | 0.00 | 88 | 1015.6 |
| 20260506101455 | 16 | 200 | 0.0 | 1.6 | 0.00 | 0.00 | 0.00 | 88 | 1015.6 |
| 20260506100953 | 16 | 183 | 4.8 | 9.7 | 0.00 | 0.00 | 0.00 | 88 | 1015.2 |
| 20260506100451 | 16 | 211 | 0.0 | 9.7 | 0.00 | 0.00 | 0.00 | 88 | 1015.2 |
| 20260506095949 | 16 | 167 | 0.0 | 11.3 | 0.00 | 0.00 | 0.00 | 88 | 1014.9 |
| 20260506095447 | 16 | 180 | 0.0 | 11.3 | 0.00 | 0.00 | 0.00 | 88 | 1015.2 |
| 20260506094942 | 16 | 216 | 0.0 | 0.0 | 0.00 | 0.00 | 0.00 | 88 | 1014.9 |
| 20260506094441 | 16 | 215 | 0.0 | 12.9 | 0.00 | 0.00 | 0.00 | 88 | 1015.2 |
| 20260506093939 | 16 | 213 | 0.0 | 3.2 | 0.00 | 0.00 | 0.00 | 88 | 1015.6 |
| 20260506093437 | 16 | 202 | 1.6 | 11.3 | 0.00 | 0.00 | 0.00 | 88 | 1015.2 |
| 20260506092934 | 16 | 207 | 0.0 | 1.6 | 0.00 | 0.00 | 0.00 | 87 | 1015.2 |
| 20260506092432 | 16 | 188 | 0.0 | 8.0 | 0.00 | 0.00 | 0.00 | 87 | 1015.6 |
| 20260506091928 | 16 | 171 | 0.0 | 0.0 | 0.00 | 0.00 | 0.00 | 87 | 1015.6 |
| 20260506091427 | 16 | 195 | 0.0 | 9.7 | 0.00 | 0.00 | 0.00 | 86 | 1015.9 |
| 20260506090923 | 16 | 189 | 0.0 | 0.0 | 0.00 | 0.00 | 0.00 | 86 | 1015.6 |
| 20260506090421 | 16 | 183 | 0.0 | 0.0 | 0.00 | 0.00 | 0.00 | 86 | 1015.6 |
| 20260506085918 | 16 | 172 | 0.0 | 0.0 | 0.00 | 0.00 | 0.00 | 86 | 1015.6 |
| 20260506085414 | 16 | 207 | 0.0 | 4.8 | 0.00 | 0.00 | 0.00 | 86 | 1015.6 |
| 20260506084910 | 16 | 194 | 0.0 | 0.0 | 0.00 | 0.00 | 0.00 | 85 | 1015.6 |
| 20260506084408 | 16 | 196 | 0.0 | 11.3 | 0.00 | 0.00 | 0.00 | 85 | 1015.6 |
| 20260506083904 | 16 | 217 | 8.0 | 11.3 | 0.00 | 0.00 | 0.00 | 85 | 1015.6 |
| 20260506083401 | 16 | 164 | 0.0 | 9.7 | 0.00 | 0.00 | 0.00 | 84 | 1015.6 |
| 20260506082858 | 16 | 218 | 0.0 | 0.0 | 0.00 | 0.00 | 0.00 | 84 | 1015.2 |
| 20260506082355 | 16 | 187 | 0.0 | 0.0 | 0.00 | 0.00 | 0.00 | 84 | 1015.6 |
| 20260506081851 | 17 | 197 | 6.4 | 9.7 | 0.00 | 0.00 | 0.00 | 83 | 1015.6 |
| 20260506081349 | 17 | 225 | 0.0 | 9.7 | 0.00 | 0.00 | 0.00 | 83 | 1015.6 |
| 20260506080847 | 17 | 192 | 0.0 | 0.0 | 0.00 | 0.00 | 0.00 | 82 | 1015.9 |
| 20260506080343 | 17 | 213 | 0.0 | 1.6 | 0.00 | 0.00 | 0.00 | 82 | 1015.6 |
| 20260506073327 | 17 | 189 | 6.4 | 14.5 | 0.00 | 0.00 | 0.00 | 80 | 1015.6 |
| 20260506072824 | 17 | 193 | 6.4 | 12.9 | 0.00 | 0.00 | 0.00 | 80 | 1015.6 |
| 20260506072322 | 17 | 204 | 9.7 | 12.9 | 0.00 | 0.00 | 0.00 | 80 | 1015.9 |
| 20260506071819 | 18 | 195 | 8.0 | 14.5 | 0.00 | 0.00 | 0.00 | 79 | 1015.6 |
| 20260506071317 | 18 | 181 | 8.0 | 14.5 | 0.00 | 0.00 | 0.00 | 79 | 1015.6 |
| 20260506070814 | 18 | 168 | 4.8 | 14.5 | 0.00 | 0.00 | 0.00 | 79 | 1015.6 |
| 20260506070311 | 18 | 227 | 12.9 | 17.7 | 0.00 | 0.00 | 0.00 | 79 | 1015.6 |
| 20260506062248 | 18 | 207 | 11.3 | 14.5 | 0.00 | 0.00 | 0.00 | 80 | 1016.2 |
| 20260506061744 | 18 | 201 | 14.5 | 16.1 | 0.00 | 0.00 | 0.00 | 79 | 1015.9 |
| 20260506061241 | 18 | 197 | 8.0 | 11.3 | 0.00 | 0.00 | 0.00 | 79 | 1015.9 |
| 20260506060739 | 18 | 187 | 8.0 | 16.1 | 0.00 | 0.00 | 0.00 | 79 | 1015.9 |
| 20260506060237 | 18 | 175 | 8.0 | 17.7 | 0.00 | 0.00 | 0.00 | 79 | 1015.9 |
| 20260506051208 | 18 | 205 | 14.5 | 16.1 | 0.00 | 0.00 | 0.00 | 77 | 1016.6 |
| 20260506050707 | 18 | 219 | 8.0 | 16.1 | 0.00 | 0.00 | 0.00 | 76 | 1016.6 |
| 20260506050203 | 18 | 152 | 0.0 | 11.3 | 0.00 | 0.00 | 0.00 | 76 | 1016.6 |
| 20260506044654 | 19 | 196 | 8.0 | 24.1 | 0.00 | 0.00 | 0.00 | 74 | 1016.6 |
| 20260506044151 | 19 | 224 | 9.7 | 17.7 | 0.00 | 0.00 | 0.00 | 74 | 1016.6 |
| 20260506043648 | 19 | 187 | 1.6 | 22.5 | 0.00 | 0.00 | 0.00 | 73 | 1016.6 |
| 20260506043146 | 19 | 208 | 11.3 | 22.5 | 0.00 | 0.00 | 0.00 | 73 | 1016.6 |
| 20260506042645 | 20 | 209 | 0.0 | 22.5 | 0.00 | 0.00 | 0.00 | 72 | 1016.6 |
| 20260506042143 | 20 | 234 | 11.3 | 20.9 | 0.00 | 0.00 | 0.00 | 71 | 1016.9 |
| 20260506041641 | 20 | 192 | 9.7 | 17.7 | 0.00 | 0.00 | 0.00 | 70 | 1016.9 |
| 20260506041137 | 20 | 136 | 3.2 | 14.5 | 0.00 | 0.00 | 0.00 | 70 | 1016.9 |
| 20260506040635 | 20 | 175 | 8.0 | 14.5 | 0.00 | 0.00 | 0.00 | 69 | 1016.6 |
| 20260506040132 | 20 | 200 | 9.7 | 14.5 | 0.00 | 0.00 | 0.00 | 69 | 1016.6 |
| 20260506035629 | 20 | 213 | 11.3 | 20.9 | 0.00 | 0.00 | 0.00 | 69 | 1016.6 |
| 20260506035125 | 20 | 219 | 11.3 | 16.1 | 0.00 | 0.00 | 0.00 | 69 | 1016.9 |
| 20260506034623 | 20 | 148 | 8.0 | 22.5 | 0.00 | 0.00 | 0.00 | 68 | 1016.6 |
| 20260506034120 | 20 | 153 | 8.0 | 16.1 | 0.00 | 0.00 | 0.00 | 68 | 1016.6 |
| 20260506033617 | 20 | 223 | 12.9 | 16.1 | 0.00 | 0.00 | 0.00 | 67 | 1016.6 |
| 20260506033114 | 20 | 191 | 8.0 | 16.1 | 0.00 | 0.00 | 0.00 | 67 | 1016.6 |
| 20260506032612 | 20 | 221 | 14.5 | 17.7 | 0.00 | 0.00 | 0.00 | 67 | 1016.6 |
| 20260506032108 | 20 | 137 | 11.3 | 20.9 | 0.00 | 0.00 | 0.00 | 67 | 1016.6 |
| 20260506031605 | 20 | 201 | 17.7 | 22.5 | 0.00 | 0.00 | 0.00 | 67 | 1016.6 |
| 20260506031102 | 20 | 215 | 6.4 | 20.9 | 0.00 | 0.00 | 0.00 | 66 | 1016.6 |
| 20260506030601 | 20 | 206 | 9.7 | 11.3 | 0.00 | 0.00 | 0.00 | 67 | 1016.9 |
| 20260506030057 | 21 | 133 | 4.8 | 11.3 | 0.00 | 0.00 | 0.00 | 66 | 1016.6 |
| 20260506025554 | 21 | 216 | 9.7 | 14.5 | 0.00 | 0.00 | 0.00 | 65 | 1016.9 |
| 20260506025050 | 21 | 209 | 6.4 | 17.7 | 0.00 | 0.00 | 0.00 | 65 | 1016.6 |
| 20260506024547 | 21 | 209 | 12.9 | 20.9 | 0.00 | 0.00 | 0.00 | 65 | 1016.2 |
| 20260506024044 | 21 | 184 | 14.5 | 20.9 | 0.00 | 0.00 | 0.00 | 64 | 1016.2 |
| 20260506023540 | 21 | 205 | 9.7 | 22.5 | 0.00 | 0.00 | 0.00 | 64 | 1016.6 |
| 20260506023038 | 21 | 201 | 9.7 | 14.5 | 0.00 | 0.00 | 0.00 | 64 | 1016.6 |
| 20260506022535 | 21 | 205 | 6.4 | 16.1 | 0.00 | 0.00 | 0.00 | 64 | 1016.6 |
| 20260506022032 | 21 | 187 | 11.3 | 12.9 | 0.00 | 0.00 | 0.00 | 64 | 1016.6 |
| 20260506021530 | 21 | 217 | 3.2 | 9.7 | 0.00 | 0.00 | 0.00 | 65 | 1016.6 |
| 20260506021027 | 21 | 221 | 4.8 | 12.9 | 0.00 | 0.00 | 0.00 | 64 | 1016.2 |
| 20260506020524 | 21 | 187 | 6.4 | 11.3 | 0.00 | 0.00 | 0.00 | 64 | 1015.9 |
| 20260506020021 | 21 | 187 | 4.8 | 9.7 | 0.00 | 0.00 | 0.00 | 63 | 1016.2 |
| 20260506015519 | 21 | 219 | 0.0 | 9.7 | 0.00 | 0.00 | 0.00 | 64 | 1016.2 |
| 20260506015016 | 21 | 181 | 4.8 | 9.7 | 0.00 | 0.00 | 0.00 | 63 | 1016.2 |
| 20260506014513 | 22 | 216 | 6.4 | 14.5 | 0.00 | 0.00 | 0.00 | 63 | 1015.9 |
| 20260506014009 | 22 | 204 | 0.0 | 11.3 | 0.00 | 0.00 | 0.00 | 63 | 1015.9 |
| 20260506013507 | 22 | 197 | 4.8 | 11.3 | 0.00 | 0.00 | 0.00 | 62 | 1015.9 |
| 20260506013003 | 22 | 215 | 0.0 | 4.8 | 0.00 | 0.00 | 0.00 | 62 | 1015.6 |
| 20260506012459 | 22 | 188 | 0.0 | 8.0 | 0.00 | 0.00 | 0.00 | 61 | 1015.9 |
| 20260506011957 | 22 | 219 | 6.4 | 11.3 | 0.00 | 0.00 | 0.00 | 61 | 1015.9 |
| 20260506011454 | 22 | 217 | 0.0 | 9.7 | 0.00 | 0.00 | 0.00 | 60 | 1015.6 |
| 20260506010950 | 22 | 199 | 3.2 | 9.7 | 0.00 | 0.00 | 0.00 | 59 | 1015.6 |
| 20260506010450 | 22 | 194 | 1.6 | 9.7 | 0.00 | 0.00 | 0.00 | 58 | 1015.6 |
| 20260506005945 | 22 | 194 | 3.2 | 8.0 | 0.00 | 0.00 | 0.00 | 58 | 1015.6 |
| 20260506005443 | 22 | 212 | 8.0 | 17.7 | 0.00 | 0.00 | 0.00 | 58 | 1015.6 |
| 20260506004938 | 23 | 202 | 8.0 | 12.9 | 0.00 | 0.00 | 0.00 | 58 | 1015.6 |
| 20260506004436 | 22 | 201 | 11.3 | 12.9 | 0.00 | 0.00 | 0.00 | 57 | 1015.2 |
| 20260506003932 | 23 | 200 | 0.0 | 8.0 | 0.00 | 0.00 | 0.00 | 58 | 1015.2 |
| 20260506003429 | 23 | 199 | 1.6 | 12.9 | 0.00 | 0.00 | 0.00 | 58 | 1015.6 |
| 20260506002925 | 23 | 213 | 8.0 | 9.7 | 0.00 | 0.00 | 0.00 | 58 | 1015.2 |
| 20260506002421 | 23 | 221 | 0.0 | 9.7 | 0.00 | 0.00 | 0.00 | 59 | 1015.2 |
| 20260506001917 | 23 | 204 | 8.0 | 9.7 | 0.00 | 0.00 | 0.00 | 57 | 1015.2 |
| 20260506001414 | 23 | 206 | 9.7 | 11.3 | 0.00 | 0.00 | 0.00 | 56 | 1015.2 |
| 20260506000911 | 23 | 193 | 0.0 | 0.0 | 0.00 | 0.00 | 0.00 | 56 | 1015.6 |
| 20260506000409 | 23 | 194 | 4.8 | 8.0 | 0.00 | 0.00 | 0.00 | 55 | 1015.2 |
| 20260505235905 | 23 | 227 | 6.4 | 9.7 | 0.00 | 0.00 | 0.00 | 55 | 1014.9 |
| 20260505235404 | 23 | 204 | 0.0 | 9.7 | 0.00 | 0.00 | 0.00 | 55 | 1015.2 |
| 20260505234900 | 24 | 207 | 0.0 | 9.7 | 0.00 | 0.00 | 0.00 | 54 | 1014.9 |
| 20260505234358 | 24 | 159 | 9.7 | 17.7 | 0.00 | 0.00 | 0.00 | 53 | 1015.2 |
| 20260505233854 | 24 | 211 | 4.8 | 12.9 | 0.00 | 0.00 | 0.00 | 54 | 1015.2 |
| 20260505233352 | 24 | 153 | 11.3 | 17.7 | 0.00 | 0.00 | 0.00 | 53 | 1015.2 |
| 20260505232849 | 24 | 203 | 6.4 | 12.9 | 0.00 | 0.00 | 0.00 | 53 | 1014.9 |
| 20260505232347 | 25 | 194 | 11.3 | 16.1 | 0.00 | 0.00 | 0.00 | 53 | 1014.9 |
| 20260505231844 | 25 | 211 | 12.9 | 14.5 | 0.00 | 0.00 | 0.00 | 53 | 1015.2 |
| 20260505231341 | 25 | 219 | 4.8 | 27.4 | 0.00 | 0.00 | 0.00 | 53 | 1015.2 |
| 20260505230839 | 25 | 178 | 9.7 | 14.5 | 0.00 | 0.00 | 0.00 | 52 | 1014.9 |
| 20260505230336 | 25 | 207 | 9.7 | 17.7 | 0.00 | 0.00 | 0.00 | 51 | 1015.2 |
| 20260505225833 | 25 | 195 | 16.1 | 22.5 | 0.00 | 0.00 | 0.00 | 50 | 1015.2 |
| 20260505225330 | 25 | 214 | 6.4 | 17.7 | 0.00 | 0.00 | 0.00 | 51 | 1014.9 |
| 20260505224825 | 25 | 219 | 11.3 | 22.5 | 0.00 | 0.00 | 0.00 | 49 | 1014.9 |
| 20260505224323 | 25 | 182 | 6.4 | 22.5 | 0.00 | 0.00 | 0.00 | 51 | 1014.9 |
| 20260505223820 | 25 | 163 | 14.5 | 17.7 | 0.00 | 0.00 | 0.00 | 50 | 1015.2 |
| 20260505223317 | 25 | 207 | 14.5 | 22.5 | 0.00 | 0.00 | 0.00 | 49 | 1015.2 |
| 20260505222813 | 25 | 155 | 8.0 | 32.2 | 0.00 | 0.00 | 0.00 | 49 | 1015.2 |
| 20260505222309 | 25 | 216 | 9.7 | 14.5 | 0.00 | 0.00 | 0.00 | 50 | 1015.6 |
| 20260505221806 | 25 | 201 | 11.3 | 16.1 | 0.00 | 0.00 | 0.00 | 50 | 1014.9 |
| 20260505221303 | 25 | 204 | 12.9 | 22.5 | 0.00 | 0.00 | 0.00 | 50 | 1015.2 |
| 20260505220800 | 25 | 207 | 16.1 | 20.9 | 0.00 | 0.00 | 0.00 | 50 | 1014.9 |
| 20260505220257 | 25 | 139 | 6.4 | 20.9 | 0.00 | 0.00 | 0.00 | 50 | 1015.2 |
| 20260505215755 | 25 | 189 | 11.3 | 20.9 | 0.00 | 0.00 | 0.00 | 48 | 1015.2 |
| 20260505215253 | 25 | 219 | 12.9 | 20.9 | 0.00 | 0.00 | 0.00 | 47 | 1015.2 |
| 20260505214750 | 25 | 168 | 11.3 | 20.9 | 0.00 | 0.00 | 0.00 | 48 | 1015.2 |
| 20260505214248 | 25 | 218 | 17.7 | 24.1 | 0.00 | 0.00 | 0.00 | 48 | 1015.2 |
| 20260505213745 | 25 | 206 | 12.9 | 22.5 | 0.00 | 0.00 | 0.00 | 47 | 1015.2 |
| 20260505213242 | 26 | 198 | 9.7 | 24.1 | 0.00 | 0.00 | 0.00 | 46 | 1015.2 |
| 20260505212737 | 26 | 205 | 16.1 | 20.9 | 0.00 | 0.00 | 0.00 | 46 | 1015.2 |
| 20260505212235 | 26 | 149 | 17.7 | 25.7 | 0.00 | 0.00 | 0.00 | 45 | 1015.2 |
| 20260505211732 | 26 | 196 | 11.3 | 24.1 | 0.00 | 0.00 | 0.00 | 47 | 1015.2 |
| 20260505211229 | 26 | 230 | 16.1 | 27.4 | 0.00 | 0.00 | 0.00 | 45 | 1014.9 |
| 20260505210726 | 26 | 198 | 20.9 | 32.2 | 0.00 | 0.00 | 0.00 | 47 | 1015.2 |
| 20260505210222 | 26 | 199 | 20.9 | 29.0 | 0.00 | 0.00 | 0.00 | 47 | 1015.2 |
| 20260505205720 | 26 | 218 | 19.3 | 25.7 | 0.00 | 0.00 | 0.00 | 47 | 1015.2 |
| 20260505205218 | 26 | 190 | 14.5 | 22.5 | 0.00 | 0.00 | 0.00 | 47 | 1015.6 |
| 20260505204714 | 26 | 161 | 14.5 | 24.1 | 0.00 | 0.00 | 0.00 | 46 | 1014.9 |
| 20260505204212 | 26 | 223 | 16.1 | 22.5 | 0.00 | 0.00 | 0.00 | 46 | 1015.6 |
| 20260505203709 | 25 | 142 | 12.9 | 22.5 | 0.00 | 0.00 | 0.00 | 48 | 1015.6 |
| 20260505203206 | 26 | 224 | 3.2 | 22.5 | 0.00 | 0.00 | 0.00 | 48 | 1015.2 |
| 20260505202702 | 26 | 186 | 14.5 | 22.5 | 0.00 | 0.00 | 0.00 | 47 | 1015.6 |
| 20260505202158 | 26 | 210 | 19.3 | 22.5 | 0.00 | 0.00 | 0.00 | 46 | 1015.6 |
| 20260505201654 | 25 | 200 | 6.4 | 14.5 | 0.00 | 0.00 | 0.00 | 47 | 1015.6 |
| 20260505201153 | 25 | 196 | 17.7 | 20.9 | 0.00 | 0.00 | 0.00 | 47 | 1015.6 |
| 20260505200651 | 25 | 186 | 20.9 | 32.2 | 0.00 | 0.00 | 0.00 | 47 | 1015.6 |
| 20260505200147 | 26 | 198 | 22.5 | 33.8 | 0.00 | 0.00 | 0.00 | 47 | 1015.6 |
| 20260505195643 | 26 | 202 | 4.8 | 24.1 | 0.00 | 0.00 | 0.00 | 45 | 1015.6 |
| 20260505195140 | 26 | 174 | 14.5 | 22.5 | 0.00 | 0.00 | 0.00 | 45 | 1015.6 |
| 20260505194638 | 26 | 207 | 16.1 | 20.9 | 0.00 | 0.00 | 0.00 | 46 | 1015.9 |
| 20260505194134 | 26 | 201 | 12.9 | 25.7 | 0.00 | 0.00 | 0.00 | 45 | 1015.6 |
| 20260505193630 | 26 | 189 | 19.3 | 29.0 | 0.00 | 0.00 | 0.00 | 45 | 1015.9 |
| 20260505193127 | 26 | 191 | 14.5 | 32.2 | 0.00 | 0.00 | 0.00 | 44 | 1015.9 |
| 20260505192626 | 26 | 207 | 11.3 | 12.9 | 0.00 | 0.00 | 0.00 | 43 | 1015.9 |
| 20260505192123 | 26 | 198 | 12.9 | 22.5 | 0.00 | 0.00 | 0.00 | 42 | 1016.2 |
| 20260505191622 | 26 | 209 | 12.9 | 20.9 | 0.00 | 0.00 | 0.00 | 43 | 1015.9 |
| 20260505191119 | 26 | 205 | 12.9 | 32.2 | 0.00 | 0.00 | 0.00 | 43 | 1016.2 |
| 20260505190615 | 26 | 200 | 19.3 | 25.7 | 0.00 | 0.00 | 0.00 | 43 | 1016.2 |
| 20260505190110 | 26 | 205 | 20.9 | 22.5 | 0.00 | 0.00 | 0.00 | 43 | 1016.2 |
| 20260505185607 | 26 | 204 | 8.0 | 25.7 | 0.00 | 0.00 | 0.00 | 43 | 1016.6 |
| 20260505185103 | 26 | 215 | 14.5 | 20.9 | 0.00 | 0.00 | 0.00 | 43 | 1016.6 |
| 20260505184600 | 26 | 211 | 27.4 | 29.0 | 0.00 | 0.00 | 0.00 | 43 | 1016.6 |
| 20260505184057 | 26 | 195 | 8.0 | 27.4 | 0.00 | 0.00 | 0.00 | 45 | 1016.6 |
| 20260505183553 | 26 | 217 | 11.3 | 16.1 | 0.00 | 0.00 | 0.00 | 44 | 1016.6 |
| 20260505183051 | 26 | 180 | 14.5 | 22.5 | 0.00 | 0.00 | 0.00 | 43 | 1016.9 |
| 20260505182547 | 26 | 190 | 11.3 | 17.7 | 0.00 | 0.00 | 0.00 | 43 | 1016.9 |
| 20260505182044 | 26 | 144 | 12.9 | 16.1 | 0.00 | 0.00 | 0.00 | 43 | 1017.3 |
| 20260505181541 | 25 | 218 | 16.1 | 25.7 | 0.00 | 0.00 | 0.00 | 42 | 1016.9 |
| 20260505181038 | 25 | 169 | 8.0 | 20.9 | 0.00 | 0.00 | 0.00 | 42 | 1016.9 |
| 20260505180533 | 26 | 221 | 20.9 | 27.4 | 0.00 | 0.00 | 0.00 | 40 | 1016.9 |
| 20260505180032 | 25 | 182 | 8.0 | 29.0 | 0.00 | 0.00 | 0.00 | 42 | 1016.9 |
| 20260505175532 | 25 | 169 | 14.5 | 20.9 | 0.00 | 0.00 | 0.00 | 41 | 1016.9 |
| 20260505175029 | 25 | 205 | 14.5 | 37.0 | 0.00 | 0.00 | 0.00 | 41 | 1017.3 |
| 20260505174526 | 25 | 230 | 19.3 | 32.2 | 0.00 | 0.00 | 0.00 | 39 | 1016.9 |
| 20260505174022 | 25 | 193 | 11.3 | 17.7 | 0.00 | 0.00 | 0.00 | 41 | 1017.3 |
| 20260505173519 | 25 | 169 | 12.9 | 22.5 | 0.00 | 0.00 | 0.00 | 41 | 1017.3 |
| 20260505173016 | 25 | 211 | 11.3 | 24.1 | 0.00 | 0.00 | 0.00 | 40 | 1017.3 |
| 20260505172514 | 25 | 209 | 12.9 | 27.4 | 0.00 | 0.00 | 0.00 | 41 | 1017.3 |
| 20260505172009 | 25 | 187 | 11.3 | 20.9 | 0.00 | 0.00 | 0.00 | 42 | 1016.9 |
| 20260505171505 | 25 | 202 | 8.0 | 17.7 | 0.00 | 0.00 | 0.00 | 43 | 1016.9 |
| 20260505171002 | 25 | 191 | 8.0 | 17.7 | 0.00 | 0.00 | 0.00 | 42 | 1017.3 |
| 20260505170458 | 25 | 203 | 14.5 | 20.9 | 0.00 | 0.00 | 0.00 | 42 | 1017.3 |
| 20260505165954 | 25 | 218 | 6.4 | 16.1 | 0.00 | 0.00 | 0.00 | 42 | 1017.6 |
| 20260505165450 | 25 | 216 | 11.3 | 14.5 | 0.00 | 0.00 | 0.00 | 44 | 1017.3 |
| 20260505164946 | 25 | 177 | 9.7 | 16.1 | 0.00 | 0.00 | 0.00 | 44 | 1017.3 |
| 20260505164442 | 25 | 212 | 12.9 | 14.5 | 0.00 | 0.00 | 0.00 | 43 | 1017.6 |
| 20260505163940 | 25 | 204 | 12.9 | 24.1 | 0.00 | 0.00 | 0.00 | 43 | 1017.6 |
| 20260505163439 | 25 | 201 | 12.9 | 24.1 | 0.00 | 0.00 | 0.00 | 44 | 1017.3 |
| 20260505162938 | 25 | 207 | 17.7 | 20.9 | 0.00 | 0.00 | 0.00 | 45 | 1017.6 |
| 20260505162433 | 24 | 172 | 8.0 | 14.5 | 0.00 | 0.00 | 0.00 | 44 | 1017.6 |
| 20260505161930 | 24 | 217 | 16.1 | 20.9 | 0.00 | 0.00 | 0.00 | 46 | 1017.6 |
| 20260505161426 | 24 | 217 | 8.0 | 12.9 | 0.00 | 0.00 | 0.00 | 45 | 1017.9 |
| 20260505160924 | 24 | 209 | 11.3 | 20.9 | 0.00 | 0.00 | 0.00 | 47 | 1017.6 |
| 20260505160422 | 24 | 189 | 12.9 | 14.5 | 0.00 | 0.00 | 0.00 | 49 | 1017.9 |
| 20260505152858 | 23 | 218 | 9.7 | 16.1 | 0.00 | 0.00 | 0.00 | 51 | 1018.3 |
| 20260505152350 | 23 | 198 | 9.7 | 12.9 | 0.00 | 0.00 | 0.00 | 52 | 1018.3 |
| 20260505151849 | 23 | 182 | 8.0 | 11.3 | 0.00 | 0.00 | 0.00 | 54 | 1018.3 |
| 20260505151346 | 22 | 191 | 8.0 | 12.9 | 0.00 | 0.00 | 0.00 | 54 | 1018.3 |
| 20260505150844 | 22 | 198 | 12.9 | 16.1 | 0.00 | 0.00 | 0.00 | 54 | 1018.3 |
| 20260505150341 | 22 | 224 | 4.8 | 8.0 | 0.00 | 0.00 | 0.00 | 58 | 1018.3 |